Location: Terra Rouge Observatory
(46.0000°N, 62.7500°W)
Time: 04:25:09
(UTC-04:00)

Daily predictions for brighter satellites

Satellite Brightness Start Highest point End
(mag) Time Altitude Azimuth Time Altitude Azimuth Time Altitude Azimuth
Cosmos 2333 Rocket 4.3 04:03:22 19° NNE 04:03:22 19° NNE 04:04:51 10° NNE
SL-16 R/B 2.8 04:23:27 52° ESE 04:23:27 52° ESE 04:28:55 10° NE
CENTAUR R/B 2.6 04:25:34 74° E 04:25:34 74° E 04:32:04 10° NE
Cosmos 1680 Rocket 4.5 04:25:33 44° ESE 04:25:42 44° ESE 04:30:39 10° NNE
CZ-4C R/B 4.3 04:34:37 17° N 04:34:37 17° N 04:38:06 10° NNE
Cosmos 1238 Rocket 4.0 04:38:40 55° E 04:38:40 55° E 04:43:56 10° SSE
COSMO-SKYMED 1 4.2 04:35:12 10° SE 04:39:02 32° ENE 04:39:55 29° NE
ATLAS 3B R/B 4.3 04:44:23 20° N 04:44:23 20° N 04:49:13 10° NNE
Cosmos 1346 Rocket 4.4 04:47:25 34° E 04:47:25 34° E 04:50:38 10° SE
Cosmos 2237 Rocket 3.4 04:56:33 28° N 04:56:33 28° N 04:59:23 10° NNE
Cosmos 2074 Rocket 4.4 04:48:32 10° S 04:54:42 63° E 05:00:53 10° NNE
Lacrosse 5 4.3 04:58:23 10° S 05:02:08 21° ESE 05:05:54 10° ENE
ADEOS II 3.7 05:02:49 10° N 05:04:38 21° N 05:04:38 21° N
Cosmos 2184 Rocket 4.0 05:03:16 10° S 05:09:24 77° E 05:15:37 10° N
Feng Yun 1-1 Rocket 4.1 05:04:42 10° NNE 05:10:22 77° WNW 05:15:51 10° SSW
SL-08 ROCKET BODY 4.3 05:05:04 10° S 05:11:02 83° E 05:16:57 10° N
Lacrosse 4 Rocket 4.2 05:11:26 10° NNE 05:12:05 10° NE 05:12:43 10° NE
Meteor 1-18 Rocket 4.2 05:12:22 39° NNW 05:14:35 68° W 05:20:27 10° S
Cosmos 2369 Rocket 3.2 05:15:56 16° N 05:20:14 44° NE 05:25:40 10° SE
Cosmos 1603 4.3 05:15:25 10° S 05:20:59 57° ESE 05:26:32 10° NNE
CZ-4B R/B 4.4 05:17:13 10° N 05:27:04 - SSW 05:20:49 53° NNW
Cosmos 2056 Rocket 3.5 05:22:05 29° NNW 05:24:48 80° ENE 05:29:55 10° SSE
SKYMED 2 3.4 05:22:38 10° SSE 05:26:59 85° WSW 05:28:33 39° NNW
Cosmos 292 Rocket 3.7 05:26:00 50° WSW 05:27:00 64° WNW 05:31:49 10° NNE
Cosmos 2151 Rocket 3.5 05:25:28 10° SSW 05:29:55 62° W 05:34:23 10° N
Cosmos 2219 Rocket 3.9 05:33:55 16° NNW 05:33:55 16° NNW 05:35:57 10° N
ATLAS 5 CENTAUR R/B 4.2 05:33:34 12° NNW 05:34:51 13° N 05:37:23 10° NNE
CRYOSAT 2 4.2 05:30:02 10° S 05:34:54 76° W 05:39:50 10° N
Meteor 1-20 Rocket 4.0 05:29:24 10° SSW 05:34:57 68° WNW 05:40:27 10° N
Cosmos 1624 Rocket 3.9 05:35:50 27° NNW 05:38:44 74° WSW 05:44:01 10° SSE
Lacrosse 5 rocket 3.0 05:39:23 21° N 05:39:23 21° N 05:42:38 10° NE
USA 32 4.1 05:36:41 25° NNW 05:39:31 50° W 05:44:32 10° SSW
DMSP B5D1-3 4.4 05:35:50 10° S 05:40:59 79° WSW 05:46:09 10° NNW
Ariane Rocket 3.2 05:37:21 10° NNE 05:42:26 72° ESE 05:47:28 10° S
Cosmos 1371 Rocket 4.1 05:40:47 32° NW 05:43:04 56° WSW 05:48:12 10° S
Cosmos 2333 Rocket 3.7 05:45:25 18° NNW 05:45:25 18° NNW 05:48:13 10° N
Cosmos 1943 4.5 05:42:04 10° S 05:47:20 43° ESE 05:52:39 10° NE
Cosmos 1536 Rocket 4.0 05:47:32 39° W 05:47:47 39° W 05:51:54 10° SSW
Cosmos 1610 Rocket 4.4 05:41:49 10° SSW 05:47:59 78° W 05:54:17 10° N
DNEPR-1 R/B 4.4 05:42:13 10° SW 05:49:26 76° NW 05:55:19 10° NE
USA 215 3.2 05:43:56 10° NE 05:50:29 80° NW 05:56:46 11° WSW
Cosmos 1025 Rocket 3.3 05:57:28 10° N 06:01:53 71° E 06:06:14 10° SSE
Meteor 1-19 Rocket 4.2 05:56:05 10° NNW 06:01:57 76° W 06:07:43 10° S
Okean 1 4.4 06:06:19 25° W 06:06:19 25° W 06:09:21 10° SW
SL-16 R/B 3.0 06:05:26 22° W 06:07:49 29° NW 06:12:45 10° N
Cosmos 1680 Rocket 4.3 06:06:01 22° W 06:08:01 28° WNW 06:12:30 10° N
Cosmos 921 Rocket 4.2 06:08:05 23° W 06:08:14 23° W 06:11:46 10° SSW
Tiangong 2 1.8 06:06:52 26° WSW 06:08:17 46° S 06:11:20 10° ESE
Meteor 1-11 Rocket 3.7 06:03:06 10° SSW 06:08:58 81° W 06:14:45 10° N
Okean 1 Rocket 3.0 06:05:29 10° SSW 06:09:51 63° W 06:14:13 10° N
Cosmos 1943 Rocket 2.9 06:05:08 10° NNW 06:10:30 49° ENE 06:15:49 10° SE
Cosmos 1452 Rocket 3.5 06:08:59 10° NNW 06:14:18 90° WSW 06:19:35 10° SSE
SL-23 DEB 3.5 06:13:03 26° NW 06:14:37 63° NNE 06:18:11 10° ESE
COSMO-SKYMED 1 3.5 06:11:31 10° SSW 06:15:12 27° W 06:17:08 20° NW
Abrixas rocket 4.0 06:12:51 10° SSW 06:15:54 32° SSE 06:18:57 10° E
CENTAUR R/B 3.4 06:12:47 19° W 06:16:33 32° NNW 06:22:57 10° NNE
Nadezhda 3 Rocket 4.1 06:11:31 10° NNW 06:17:44 57° W 06:23:54 10° SSW
Cosmos 1602 4.0 06:14:11 10° SSW 06:17:59 45° WNW 06:21:49 10° N
Okean 1-7 Rocket 3.7 06:14:31 10° NNW 06:18:48 49° W 06:23:01 10° SSW
CZ-2C R/B 3.3 06:15:45 10° NNE 06:20:52 55° E 06:25:52 10° S
Okean 2 3.7 06:17:09 10° N 06:21:21 71° E 06:25:29 10° SSE
SMAP 4.0 06:16:50 10° NNE 06:21:24 52° E 06:25:56 10° S
Cosmos 44 4.2 06:17:32 10° SSW 06:22:47 59° ESE 06:27:54 10° NE
Cosmos 2263 4.2 06:17:28 10° NNW 06:23:09 90° WSW 06:28:45 10° SSE
Cosmos 1346 Rocket 4.2 06:23:01 18° W 06:23:11 18° W 06:25:56 10° SW
CZ-4C R/B 4.4 06:20:14 10° NNW 06:24:56 20° NNE 06:30:02 10° ENE
GRACE-2 3.7 06:24:59 10° N 06:27:47 81° W 06:30:33 10° S
GRACE-1 3.7 06:25:24 10° N 06:28:12 78° W 06:30:58 10° S
Meteor 1-23 Rocket 4.2 06:26:14 10° NNW 06:31:46 68° W 06:37:16 10° S
Cosmos 1633 3.3 06:30:26 10° SW 06:33:43 31° WNW 06:37:00 10° N
Cosmos 1892 Rocket 3.6 06:30:39 10° N 06:35:07 90° W 06:39:36 10° S
ATLAS 3B R/B 4.4 06:32:30 10° NNW 06:37:41 21° NNE 06:42:40 10° ENE
Cosmos 1727 Rocket 4.4 06:32:41 10° N 06:38:52 67° E 06:45:01 10° SSE
CZ-4 R/B 1.2 06:34:54 10° N 06:38:53 75° WNW 06:42:47 10° SSW
Cosmos 2237 Rocket 4.0 06:38:25 10° NW 06:39:37 11° NNW 06:41:03 10° NNW
Cosmos 2341 Rocket 4.1 06:33:38 10° SSW 06:39:49 57° WNW 06:45:59 10° N
Meteor 1-28 Rocket 4.5 06:37:49 10° SW 06:40:49 22° W 06:43:52 10° NW
SJ-12 3.9 06:37:57 10° N 06:42:08 80° WNW 06:46:17 10° SSW
Lacrosse 5 1.9 06:39:28 10° SW 06:44:35 82° NW 06:49:44 10° NE
Meteor 2-4 Rocket 4.1 06:42:43 10° NNW 06:47:52 43° W 06:53:08 10° SSW
USA 129 4.0 06:49:02 10° WSW 06:49:37 11° W 06:49:37 11° W
CSL-04 Rocket 4.1 06:46:06 10° N 06:51:15 40° WNW 06:56:21 10° SW
Lacrosse 4 Rocket 2.0 06:47:40 10° NNW 06:51:48 55° NE 06:55:48 10° SE
Cosmos 1269 Rocket 4.5 06:46:57 10° S 06:52:12 69° ESE 06:57:29 10° NNE
Cosmos 1900 4.4 06:47:22 10° NW 06:52:15 69° WSW 06:57:09 10° SSE
CSL-04 Debris 4.5 06:47:24 10° N 06:52:34 44° WNW 06:57:43 10° SW
IRS-1A Rocket 4.4 06:47:34 10° N 06:53:06 56° WNW 06:58:43 10° SW
Cosmos 1536 3.6 06:50:20 10° SW 06:53:53 30° WNW 06:57:28 10° N
PAYLOAD A 4.3 06:49:57 10° N 06:55:09 54° WNW 07:00:25 10° SSW
Cosmos 44 Rocket 3.6 06:51:16 10° SW 06:56:18 50° NW 07:01:17 10° NNE
Cosmos 1340 2.9 06:53:01 10° NNW 06:56:42 50° W 07:00:22 10° S
Meteor 1-5 Rocket 4.1 06:56:14 10° SSW 07:01:32 60° WNW 07:06:48 10° N
Cosmos 2369 Rocket 3.0 06:59:05 10° NW 07:04:07 33° WSW 07:09:06 10° SSW
Cosmos 1455 Rocket 3.0 07:00:08 10° SSW 07:04:27 79° W 07:08:49 10° N
SPOT 3 Rocket 3.5 07:00:30 10° N 07:05:38 68° WNW 07:10:44 10° SSW
USA 229 DEB 3.9 07:00:48 10° SW 07:07:42 86° SE 07:14:43 10° NE
USA 229 3.9 07:00:55 10° SSW 07:07:48 85° SE 07:14:49 10° NE
